Location: Mt. Graham
(32.7020°N, 109.8880°W)
Time: 01:44:21
(UTC-07:00)

ESTCUBE 1 - Visible Passes

Search period start: 26 May 2024 00:00
Search period end: 05 June 2024 00:00
Orbit: 635 x 646 km, 97.8° (Epoch: 26 May)

Date Brightness Start Highest point End Pass type
(mag) Time Alt. Az. Time Alt. Az. Time Alt. Az.
26 May ? 21:50:53 61° NNE 21:50:53 61° NNE 21:54:45 10° N visible
27 May ? 22:14:50 50° NW 22:14:50 50° NW 22:18:25 10° NNW visible
28 May ? 21:01:10 19° ENE 21:01:32 19° ENE 21:04:38 10° NNE visible
28 May ? 22:38:46 28° WNW 22:38:46 28° WNW 22:41:44 10° NW visible
29 May ? 21:25:07 34° ENE 21:25:07 34° ENE 21:29:05 10° N visible
29 May ? 23:02:42 15° WNW 23:02:42 15° WNW 23:04:26 10° NW visible
30 May ? 21:49:02 64° NE 21:49:02 64° NE 21:53:06 10° N visible
31 May ? 22:12:58 56° WNW 22:12:58 56° WNW 22:16:47 10° NNW visible
01 Jun ? 20:59:18 18° E 20:59:52 18° ENE 21:02:53 10° NNE visible
01 Jun ? 22:36:53 30° WNW 22:36:53 30° WNW 22:40:06 10° NW visible
02 Jun ? 21:23:13 33° ENE 21:23:23 33° ENE 21:27:22 10° N visible
02 Jun ? 23:00:49 16° W 23:00:49 16° W 23:02:50 10° NW visible
03 Jun ? 21:47:08 63° ENE 21:47:08 63° ENE 21:51:22 10° N visible
04 Jun ? 22:11:02 61° WNW 22:11:02 61° WNW 22:15:03 10° NNW visible
